Content
SEND FEEDBACK

Daily
Averages
Monthly
Summary
United States of America

PLACERVILLE, COLORADO


Home > North America > United States > Colorado
Elevation: 8295 feet     Latitude: 38 02N     Longitude: 108 04W

WEATHER
 
SELECT A DAY
Number of Records: 305,557;   Date Range: 1/1/95 - 10/24/14
 
SHARE

PRINT THIS DATA

[ ← Previous Day ]
WEATHER ALMANAC - JANUARY 19, 2013
[ Next Day → ]
[ °C ]   °F
Weather ElementAverageHighLow
Temperature28.7 °F41 °F (1:15 pm)17.6 °F (7:35 am)
Dewpoint5 °F10.4 °F (7:55 pm)-0.4 °F (6:15 am)
Humidity38.6 %63 % (12:35 am)19 % (1:55 pm)
Barometer30.36 in30.41 in (9:55 am)30.31 in (3:35 am)
Wind Speed4.9 mph10.4 mph (3:35 pm)
Weather ElementAverage
Visibility10 mi
Wind DirectionESE (127.6 °)

Weather ElementTotal
Precipitation---
Heating Degree Days35.7 (Base 65)
Averaged from 62 records on January 19, 2013
WEATHER CONDITIONS BREAKOUT
WIND DIRECTION BREAKOUT
WEATHER BY HOUR - JANUARY 19, 2013
[ °C ]   °F
Local TimeTemperatureDewpointHumidityBarometerVisibilityWind DirectionWind SpeedGust SpeedPrecipitationEventsConditions
12:35 AM19.4 °F8.6 °F63 %30.33 in10.0 miESE (120°)3.5 mphClear
12:55 AM21.2 °F8.6 °F58 %30.33 in10.0 miSE (130°)6.9 mphClear
1:35 AM19.4 °F8.6 °F63 %30.33 in10.0 miESE (120°)6.9 mphClear
1:55 AM23.0 °F6.8 °F50 %30.33 in10.0 miESE (120°)6.9 mphClear
2:15 AM21.2 °F5.0 °F50 %30.33 in10.0 miSE (130°)5.8 mphClear
2:35 AM21.2 °F5.0 °F50 %30.33 in10.0 miESE (120°)6.9 mphClear
2:55 AM21.2 °F5.0 °F50 %30.33 in10.0 miESE (110°)6.9 mphClear
3:15 AM21.2 °F3.2 °F46 %30.32 in10.0 miEast (100°)4.6 mphClear
3:35 AM21.2 °F3.2 °F46 %30.31 in10.0 miSE (130°)4.6 mphClear
3:55 AM21.2 °F3.2 °F46 %30.31 in10.0 miESE (110°)6.9 mphClear
4:15 AM19.4 °F3.2 °F49 %30.32 in10.0 miESE (110°)8.1 mphClear
4:35 AM19.4 °F3.2 °F49 %30.33 in10.0 miESE (110°)5.8 mphClear
4:55 AM21.2 °F3.2 °F46 %30.33 in10.0 miESE (120°)5.8 mphClear
6:15 AM19.4 °F-0.4 °F42 %30.34 in10.0 miESE (120°)6.9 mphClear
6:55 AM19.4 °F1.4 °F46 %30.35 in10.0 miESE (120°)6.9 mphClear
7:15 AM19.4 °F-0.4 °F42 %30.35 in10.0 miESE (120°)5.8 mphClear
7:35 AM17.6 °F-0.4 °F45 %30.36 in10.0 miESE (110°)8.1 mphClear
8:35 AM23.0 °F-0.4 °F36 %30.38 in10.0 miESE (120°)5.8 mphClear
8:55 AM23.0 °F-0.4 °F36 %30.39 in10.0 miEast (100°)4.6 mphClear
9:15 AM24.8 °F1.4 °F36 %30.40 in10.0 miEast (90°)3.5 mphClear
9:35 AM26.6 °F-0.4 °F31 %30.40 in10.0 miCalmClear
9:55 AM28.4 °F1.4 °F31 %30.41 in10.0 miCalmClear
10:15 AM30.2 °F-0.4 °F27 %30.41 in10.0 miCalmClear
10:35 AM30.2 °F1.4 °F29 %30.41 in10.0 miCalmClear
10:55 AM32.0 °F1.4 °F27 %30.41 in10.0 miCalmClear
11:15 AM33.8 °F5.0 °F30 %30.41 in10.0 miCalmClear
11:35 AM33.8 °F5.0 °F30 %30.40 in10.0 miCalmClear
11:55 AM35.6 °F3.2 °F26 %30.38 in10.0 miCalmClear
12:35 PM39.2 °F1.4 °F21 %30.36 in10.0 miWest (260°)6.9 mphClear
12:55 PM39.2 °F3.2 °F22 %30.35 in10.0 miWest (260°)8.1 mphClear
1:15 PM41.0 °F3.2 °F21 %30.35 in10.0 miWSW (240°)5.8 mphClear
1:35 PM41.0 °F3.2 °F21 %30.35 in10.0 miWest (270°)4.6 mphClear
1:55 PM41.0 °F1.4 °F19 %30.35 in10.0 miWSW (240°)4.6 mphClear
2:15 PM41.0 °F3.2 °F21 %30.34 in10.0 miWSW (240°)5.8 mphClear
2:35 PM41.0 °F3.2 °F21 %30.35 in10.0 miWest (260°)9.2 mphClear
2:55 PM41.0 °F3.2 °F21 %30.35 in10.0 miWest (260°)9.2 mphClear
3:15 PM41.0 °F3.2 °F21 %30.35 in10.0 miWest (260°)9.2 mphClear
3:35 PM39.2 °F5.0 °F24 %30.35 in10.0 miWest (260°)10.4 mphClear
3:55 PM37.4 °F5.0 °F26 %30.36 in10.0 miWest (260°)10.4 mphClear
4:15 PM37.4 °F6.8 °F28 %30.36 in10.0 miWSW (250°)8.1 mphClear
4:35 PM35.6 °F6.8 °F30 %30.36 in10.0 miWest (260°)8.1 mphClear
4:55 PM35.6 °F5.0 °F28 %30.36 in10.0 miWest (270°)5.8 mphClear
5:15 PM33.8 °F6.8 °F32 %30.36 in10.0 miWSW (250°)4.6 mphClear
5:35 PM32.0 °F6.8 °F35 %30.37 in10.0 miCalmClear
5:55 PM32.0 °F8.6 °F38 %30.37 in10.0 miESE (110°)4.6 mphClear
6:15 PM32.0 °F8.6 °F38 %30.37 in10.0 miCalmClear
6:35 PM30.2 °F8.6 °F40 %30.37 in10.0 miESE (120°)5.8 mphClear
6:55 PM30.2 °F8.6 °F40 %30.37 in10.0 miESE (110°)5.8 mphClear
7:15 PM30.2 °F8.6 °F40 %30.37 in10.0 miCalmClear
7:35 PM28.4 °F8.6 °F43 %30.37 in10.0 miESE (110°)4.6 mphClear
7:55 PM28.4 °F10.4 °F47 %30.37 in10.0 miESE (120°)5.8 mphClear
8:15 PM28.4 °F10.4 °F47 %30.37 in10.0 miESE (120°)4.6 mphClear
8:35 PM28.4 °F10.4 °F47 %30.37 in10.0 miESE (120°)5.8 mphClear
8:55 PM28.4 °F8.6 °F43 %30.37 in10.0 miCalmClear
9:15 PM26.6 °F8.6 °F47 %30.37 in10.0 miSE (130°)5.8 mphClear
9:35 PM26.6 °F8.6 °F47 %30.36 in10.0 miSE (130°)4.6 mphClear
10:15 PM24.8 °F8.6 °F50 %30.37 in10.0 miESE (110°)4.6 mphClear
10:35 PM24.8 °F8.6 °F50 %30.37 in10.0 miSE (130°)5.8 mphClear
10:55 PM24.8 °F8.6 °F50 %30.37 in10.0 miEast (100°)4.6 mphClear
11:15 PM23.0 °F8.6 °F54 %30.37 in10.0 miSE (130°)3.5 mphClear
11:35 PM24.8 °F6.8 °F46 %30.37 in10.0 miESE (110°)3.5 mphClear
11:55 PM23.0 °F8.6 °F54 %30.37 in10.0 miESE (110°)3.5 mphClear
Hourly data recorded from KTEX, located miles away from Placerville, Colorado







STORIES FROM OUR PARTNERS